Cloud_Cover
9 8 1 0 0 0 0 0 0 0 0 0 0 0 0 0 0 0 0 1 1 2 5 0 5 5 15 54 40 13 96 100 76 39 91 100 85 5 88 82 97 100 68 96 100
100 86 14 7 0 0 0 0 0 0 0 0 0 0 0 2 0 0 0 0 0 0 4 0 5 8 37 84 91 100 87 100 100 100 100 93 73 15 16 72 54 53 98 86 92
100 100 60 18 3 1 0 0 0 0 0 0 0 0 0 0 0 0 0 0 0 0 5 5 5 40 14 38 37 100 88 96 100 100 100 100 100 96 100 71 52 85 99 99 100
100 100 7 8 0 1 0 0 0 0 0 0 0 0 1 0 0 0 0 0 0 0 5 5 5 22 81 98 6 100 76 72 100 100 99 100 100 100 100 88 99 52 99 100 100
100 100 21 4 1 0 0 0 0 0 0 0 0 0 0 0 0 0 0 0 0 0 5 5 5 23 99 83 29 10 96 100 100 99 100 100 100 100 100 96 86 51 98 99 100
99 17 11 5 0 0 0 0 0 0 0 0 0 35 0 0 0 0 0 0 0 0 5 2 5 24 73 81 17 47 99 64 100 66 93 92 73 66 20 46 94 99 100 100 67
0 0 0 0 0 0 0 0 0 0 0 0 0 2 0 0 0 0 0 0 0 0 2 4 5 5 92 96 4 2 100 21 100 51 100 100 68 100 50 95 99 100 90 100 100
0 0 0 0 0 0 0 0 0 0 0 0 2 0 0 0 0 0 0 0 0 0 0 4 2 3 5 4 5 5 95 100 98 62 84 91 100 96 72 77 100 87 96 89 8
0 0 0 0 0 0 0 0 0 0 0 1 0 0 0 0 0 0 0 0 0 0 0 0 0 5 4 0 4 5 100 100 100 38 71 55 100 100 100 100 100 98 90 56 6
0 0 0 0 0 0 0 0 0 1 16 0 0 0 0 0 0 0 0 0 0 0 0 0 0 2 3 5 20 99 94 16 100 100 100 100 70 100 100 100 100 100 88 14 47
0 0 0 0 0 0 2 0 0 0 0 0 0 0 0 0 0 0 0 0 0 0 0 0 0 3 5 5 68 17 76 42 100 100 100 90 100 98 98 90 100 100 45 5 8
0 0 0 0 0 0 8 0 0 0 0 0 0 0 0 0 0 0 0 0 0 0 0 3 0 0 5 73 65 46 36 81 99 100 100 94 100 100 94 46 100 99 55 76 98
0 0 34 1 5 2 0 0 0 0 0 0 0 0 0 0 0 0 0 0 0 0 0 0 0 5 5 23 77 34 66 86 94 94 1 51 48 34 100 100 100 92 94 100 56
6 70 100 11 9 0 0 0 0 0 0 0 0 0 0 0 0 0 0 0 0 0 0 0 0 5 5 23 62 64 5 94 95 34 83 21 80 27 100 100 100 100 100 100 100
16 20 16 57 0 0 0 0 0 0 0 0 0 0 0 0 0 0 0 0 0 0 0 0 0 5 5 5 27 24 100 55 100 95 100 67 2 100 100 64 100 100 70 85 48
0 21 3 0 0 0 0 0 0 0 0 0 0 0 0 0 0 0 0 0 0 0 0 0 0 5 5 5 6 11 97 64 77 100 100 91 100 100 100 99 29 56 38 99 97
0 1 19 0 0 0 0 0 0 0 0 0 0 0 0 0 0 0 0 0 0 0 0 0 0 4 5 25 15 68 100 100 97 93 61 57 100 100 46 96 78 100 100 97 100
0 34 0 0 0 0 0 0 0 0 0 0 0 0 0 0 0 0 0 0 0 0 0 0 0 0 0 6 22 70 100 100 99 100 66 11 100 73 100 79 5 7 100 97 39
18 0 0 0 0 0 0 0 0 1 0 0 0 0 0 0 0 0 0 0 0 0 0 0 0 0 0 4 16 17 95 61 100 100 100 100 14 10 20 5 100 5 16 100 100
0 0 0 0 0 0 0 0 2 0 0 0 0 0 0 2 0 0 0 0 0 0 0 0 0 0 0 0 3 51 83 93 91 95 100 100 100 93 34 3 83 17 39 85 5
0 2 0 0 0 0 0 31 1 0 0 0 0 3 0 100 41 0 3 0 0 0 0 0 0 0 2 0 0 0 32 100 95 98 100 100 100 100 97 22 98 97 15 16 32
0 35 0 0 0 5 16 65 0 0 0 0 0 0 3 35 1 66 99 3 0 0 0 0 0 2 1 0 0 0 0 17 100 7 98 100 100 100 91 60 80 71 73 30 100
3 4 0 0 9 99 70 3 1 0 0 1 0 0 1 0 2 55 100 1 0 0 0 0 0 0 93 49 0 0 2 1 5 26 69 100 47 100 100 21 8 33 77 75 100
2 44 5 5 1 1 18 45 100 23 0 0 2 0 0 15 0 18 5 0 0 0 0 0 0 0 32 75 0 0 0 0 0 3 2 45 100 100 100 61 49 63 4 96 100
0 4 5 25 14 5 24 14 96 100 52 5 4 0 3 7 23 3 29 0 0 0 0 0 0 3 0 100 64 0 0 0 0 0 4 4 90 98 100 95 96 8 20 100 100
4 1 5 5 4 2 85 68 37 73 99 100 14 91 30 64 83 100 5 3 5 4 0 0 2 63 0 0 2 4 2 0 0 0 0 1 55 100 100 96 3 0 91 98 43
2 2 4 8 1 8 92 87 97 89 100 89 97 100 100 84 32 3 17 2 3 5 5 0 18 0 4 5 0 0 2 0 0 0 0 0 1 84 80 0 0 0 4 12 6